This is the latest recevied weather packets stored in our database for station/object K0QJ. If no packets are shown the sender has not sent any weather packets the latest 10 day(s).
| Time | Temp. | Humidity | Pressure | Rain* | Wind** | Luminosity | Snow |
|---|---|---|---|---|---|---|---|
| 1777829145 | 24.44° C | 44% | 1011 hPa | 0 mm | - | 822 W/m² | - |
| 1777828842 | 23.89° C | 44% | 1011.1 hPa | 0 mm | - | 825 W/m² | - |
| 1777828538 | 23.89° C | 46% | 1011.1 hPa | 0 mm | - | 815 W/m² | - |
| 1777828236 | 22.78° C | 46% | 1011.5 hPa | 0 mm | - | 815 W/m² | - |
| 1777827932 | 22.78° C | 45% | 1011.5 hPa | 0 mm | - | 766 W/m² | - |
| 1777827630 | 22.78° C | 45% | 1011.3 hPa | 0 mm | - | 810 W/m² | - |
| 1777827327 | 22.78° C | 45% | 1011.5 hPa | 0 mm | - | 798 W/m² | - |
| 1777827023 | 22.78° C | 47% | 1011.8 hPa | 0 mm | - | 786 W/m² | - |
| 1777826720 | 22.22° C | 46% | 1011.9 hPa | 0 mm | - | 809 W/m² | - |
| 1777826417 | 22.22° C | 45% | 1012.1 hPa | 0 mm | - | 822 W/m² | - |
| 1777826114 | 22.22° C | 46% | 1011.7 hPa | 0 mm | - | 823 W/m² | - |
| 1777825811 | 22.22° C | 46% | 1012.1 hPa | 0 mm | - | 813 W/m² | - |
| 1777825508 | 21.67° C | 47% | 1012.2 hPa | 0 mm | - | 804 W/m² | - |
| 1777825206 | 21.67° C | 46% | 1011.9 hPa | 0 mm | - | 788 W/m² | - |
| 1777824903 | 21.67° C | 46% | 1012 hPa | 0 mm | - | 769 W/m² | - |
| 1777824598 | 21.67° C | 47% | 1012.1 hPa | 0 mm | - | 760 W/m² | - |
| 1777824296 | 21.67° C | 47% | 1012 hPa | 0 mm | - | 726 W/m² | - |
| 1777823991 | 21.67° C | 47% | 1011.9 hPa | 0 mm | - | 709 W/m² | - |
| 1777823688 | 22.22° C | 47% | 1012 hPa | 0 mm | - | 718 W/m² | - |
| 1777823385 | 21.67° C | 49% | 1012 hPa | 0 mm | - | 714 W/m² | - |
| 1777823083 | 21.11° C | 47% | 1012.3 hPa | 0 mm | - | 709 W/m² | - |
| 1777822780 | 21.11° C | 48% | 1012.1 hPa | 0 mm | - | 693 W/m² | - |
| 1777822478 | 20.56° C | 49% | 1011.9 hPa | 0 mm | - | 684 W/m² | - |
| 1777822175 | 20.56° C | 49% | 1012.1 hPa | 0 mm | - | 671 W/m² | - |
| 1777821872 | 20.56° C | 49% | 1012.1 hPa | 0 mm | - | 642 W/m² | - |
* Rain latest hour (hover to see other rain measurements)
** Current wind speed in m/s (hover to see current wind gust speed)